| time (UTC) | temp F | wind direction | speed MPH | gust MPH | rain 1hr in | rain 24hr in | rain mn in | humidity % | barometer mb |
| 20260906135020 | 86 | 93 | 4.0 | 5.0 | 0.00 | 0.00 | 0.00 | 73 | 1016.1 |
| 20260906134024 | 84 | 150 | 2.0 | 2.0 | 0.00 | 0.00 | 0.00 | 77 | 1016.1 |
| 20260906133027 | 83 | 86 | 2.0 | 3.0 | 0.00 | 0.00 | 0.00 | 79 | 1016.1 |
| 20260906132050 | 83 | 90 | 2.0 | 3.0 | 0.00 | 0.00 | 0.00 | 80 | 1016.1 |
| 20260906131028 | 82 | 77 | 2.0 | 3.0 | 0.00 | 0.00 | 0.00 | 81 | 1016.1 |
| 20260906130032 | 81 | 83 | 1.0 | 2.0 | 0.00 | 0.00 | 0.00 | 83 | 1015.9 |
| 20260906125021 | 81 | 53 | 2.0 | 3.0 | 0.00 | 0.00 | 0.00 | 85 | 1015.8 |
| 20260906124020 | 79 | 0.0 | 0.0 | 0.00 | 0.00 | 0.00 | 88 | 1015.8 | |
| 20260906123043 | 76 | 0.0 | 0.0 | 0.00 | 0.00 | 0.00 | 92 | 1015.7 | |
| 20260906122026 | 76 | 100 | 2.0 | 2.0 | 0.00 | 0.00 | 0.00 | 93 | 1015.7 |
| 20260906121029 | 76 | 0.0 | 0.0 | 0.00 | 0.00 | 0.00 | 92 | 1015.7 | |
| 20260906120055 | 76 | 0.0 | 0.0 | 0.00 | 0.00 | 0.00 | 91 | 1015.6 | |
| 20260906115018 | 76 | 0.0 | 0.0 | 0.00 | 0.00 | 0.00 | 90 | 1015.4 | |
| 20260906114021 | 77 | 0.0 | 0.0 | 0.00 | 0.00 | 0.00 | 90 | 1015.2 | |
| 20260906113045 | 77 | 0.0 | 0.0 | 0.00 | 0.00 | 0.00 | 90 | 1015.3 | |
| 20260906112026 | 77 | 112 | 2.0 | 3.0 | 0.00 | 0.00 | 0.00 | 89 | 1015.3 |
| 20260906111024 | 77 | 106 | 0.0 | 1.0 | 0.00 | 0.00 | 0.00 | 87 | 1015.1 |
| 20260906110015 | 77 | 0.0 | 0.0 | 0.00 | 0.00 | 0.00 | 87 | 1015.0 | |
| 20260906105019 | 77 | 98 | 1.0 | 2.0 | 0.00 | 0.00 | 0.00 | 88 | 1015.1 |
| 20260906104016 | 77 | 90 | 2.0 | 3.0 | 0.00 | 0.00 | 0.00 | 88 | 1015.0 |
| 20260906103025 | 77 | 0.0 | 0.0 | 0.00 | 0.00 | 0.00 | 87 | 1014.9 | |
| 20260906102028 | 77 | 0.0 | 0.0 | 0.00 | 0.00 | 0.00 | 87 | 1014.8 | |
| 20260906101032 | 77 | 121 | 0.0 | 1.0 | 0.00 | 0.00 | 0.00 | 87 | 1014.8 |
| 20260906100037 | 77 | 99 | 2.0 | 2.0 | 0.00 | 0.00 | 0.00 | 88 | 1014.6 |
| 20260906095020 | 77 | 57 | 1.0 | 2.0 | 0.00 | 0.00 | 0.00 | 88 | 1014.5 |
| 20260906094025 | 77 | 0.0 | 0.0 | 0.00 | 0.00 | 0.00 | 87 | 1014.4 | |
| 20260906093027 | 78 | 0.0 | 0.0 | 0.00 | 0.00 | 0.00 | 86 | 1014.4 | |
| 20260906092030 | 78 | 0.0 | 0.0 | 0.00 | 0.00 | 0.00 | 86 | 1014.4 | |
| 20260906091015 | 78 | 0.0 | 0.0 | 0.00 | 0.00 | 0.00 | 85 | 1014.3 | |
| 20260906090019 | 79 | 0.0 | 0.0 | 0.00 | 0.00 | 0.00 | 83 | 1014.3 | |
| 20260906085022 | 79 | 112 | 0.0 | 1.0 | 0.00 | 0.00 | 0.00 | 83 | 1014.3 |
| 20260906084025 | 80 | 162 | 2.0 | 2.0 | 0.00 | 0.00 | 0.00 | 82 | 1014.2 |
| 20260906083029 | 80 | 160 | 2.0 | 3.0 | 0.00 | 0.00 | 0.00 | 82 | 1014.3 |
| 20260906082032 | 80 | 158 | 2.0 | 3.0 | 0.00 | 0.00 | 0.00 | 81 | 1014.3 |
| 20260906081018 | 80 | 175 | 3.0 | 4.0 | 0.00 | 0.00 | 0.00 | 81 | 1014.4 |
| 20260906080021 | 81 | 166 | 3.0 | 4.0 | 0.00 | 0.00 | 0.00 | 80 | 1014.4 |
| 20260906075024 | 81 | 173 | 3.0 | 5.0 | 0.00 | 0.00 | 0.00 | 79 | 1014.4 |
| 20260906074027 | 81 | 163 | 4.0 | 7.0 | 0.00 | 0.00 | 0.00 | 79 | 1014.5 |
| 20260906073024 | 81 | 174 | 5.0 | 7.0 | 0.00 | 0.00 | 0.00 | 78 | 1014.5 |
| 20260906072015 | 82 | 183 | 6.0 | 8.0 | 0.00 | 0.00 | 0.00 | 78 | 1014.5 |
| 20260906071019 | 82 | 163 | 5.0 | 7.0 | 0.00 | 0.00 | 0.00 | 78 | 1014.7 |
| 20260906070041 | 82 | 153 | 4.0 | 6.0 | 0.00 | 0.00 | 0.00 | 78 | 1014.8 |
| 20260906065026 | 82 | 162 | 5.0 | 6.0 | 0.00 | 0.00 | 0.00 | 78 | 1014.8 |
| 20260906064029 | 82 | 160 | 4.0 | 7.0 | 0.00 | 0.00 | 0.00 | 78 | 1014.9 |
| 20260906063032 | 82 | 170 | 3.0 | 3.0 | 0.00 | 0.00 | 0.00 | 78 | 1015.0 |
| 20260906062017 | 83 | 156 | 3.0 | 4.0 | 0.00 | 0.00 | 0.00 | 77 | 1015.0 |
| 20260906061046 | 83 | 165 | 3.0 | 5.0 | 0.00 | 0.00 | 0.00 | 77 | 1015.0 |
| 20260906060105 | 83 | 163 | 3.0 | 4.0 | 0.00 | 0.00 | 0.00 | 76 | 1014.9 |
| 20260906055027 | 83 | 165 | 3.0 | 5.0 | 0.00 | 0.00 | 0.00 | 76 | 1014.8 |
| 20260906054031 | 83 | 163 | 3.0 | 6.0 | 0.00 | 0.00 | 0.00 | 76 | 1014.8 |
| 20260906053016 | 83 | 174 | 3.0 | 3.0 | 0.00 | 0.00 | 0.00 | 76 | 1014.8 |
| 20260906052019 | 84 | 147 | 3.0 | 4.0 | 0.00 | 0.00 | 0.00 | 75 | 1014.7 |
| 20260906051022 | 84 | 174 | 4.0 | 6.0 | 0.00 | 0.00 | 0.00 | 75 | 1014.8 |
| 20260906050031 | 83 | 174 | 3.0 | 4.0 | 0.00 | 0.00 | 0.00 | 75 | 1014.8 |
| 20260906045049 | 84 | 163 | 2.0 | 3.0 | 0.00 | 0.00 | 0.00 | 74 | 1014.8 |
| 20260906044032 | 84 | 164 | 4.0 | 5.0 | 0.00 | 0.00 | 0.00 | 74 | 1014.8 |
| 20260906043017 | 84 | 153 | 3.0 | 4.0 | 0.00 | 0.00 | 0.00 | 73 | 1014.8 |
| 20260906042025 | 84 | 157 | 3.0 | 5.0 | 0.00 | 0.00 | 0.00 | 72 | 1014.7 |
| 20260906041024 | 85 | 153 | 3.0 | 4.0 | 0.00 | 0.00 | 0.00 | 71 | 1014.7 |
| 20260906040027 | 85 | 165 | 4.0 | 6.0 | 0.00 | 0.00 | 0.00 | 70 | 1014.6 |
| 20260906035025 | 85 | 160 | 3.0 | 3.0 | 0.00 | 0.00 | 0.00 | 70 | 1014.7 |
| 20260906034016 | 85 | 177 | 3.0 | 4.0 | 0.00 | 0.00 | 0.00 | 69 | 1014.8 |
| 20260906033020 | 86 | 159 | 4.0 | 5.0 | 0.00 | 0.00 | 0.00 | 68 | 1014.8 |
| 20260906032057 | 86 | 169 | 4.0 | 6.0 | 0.00 | 0.00 | 0.00 | 68 | 1014.7 |
| 20260906031026 | 86 | 162 | 4.0 | 5.0 | 0.00 | 0.00 | 0.00 | 68 | 1014.7 |
| 20260906030029 | 86 | 155 | 4.0 | 7.0 | 0.00 | 0.00 | 0.00 | 67 | 1014.7 |
| 20260906025037 | 86 | 152 | 5.0 | 7.0 | 0.00 | 0.00 | 0.00 | 66 | 1014.6 |
| 20260906024038 | 86 | 144 | 5.0 | 8.0 | 0.00 | 0.00 | 0.00 | 66 | 1014.3 |
| 20260906023021 | 87 | 127 | 5.0 | 7.0 | 0.00 | 0.00 | 0.00 | 65 | 1014.2 |
| 20260906022024 | 87 | 122 | 5.0 | 8.0 | 0.00 | 0.00 | 0.00 | 65 | 1014.1 |
| 20260906021027 | 87 | 139 | 4.0 | 5.0 | 0.00 | 0.00 | 0.00 | 64 | 1013.9 |
| 20260906020031 | 87 | 159 | 5.0 | 7.0 | 0.00 | 0.00 | 0.00 | 64 | 1013.8 |
| 20260906015016 | 87 | 145 | 5.0 | 10.0 | 0.00 | 0.00 | 0.00 | 64 | 1013.6 |
| 20260906014024 | 88 | 141 | 5.0 | 7.0 | 0.00 | 0.00 | 0.00 | 63 | 1013.4 |
| 20260906013022 | 88 | 131 | 4.0 | 6.0 | 0.00 | 0.00 | 0.00 | 62 | 1013.3 |
| 20260906012026 | 89 | 140 | 6.0 | 11.0 | 0.00 | 0.00 | 0.00 | 61 | 1013.2 |
| 20260906011029 | 89 | 139 | 6.0 | 9.0 | 0.00 | 0.00 | 0.00 | 59 | 1013.1 |
| 20260906010033 | 90 | 119 | 5.0 | 9.0 | 0.00 | 0.00 | 0.00 | 57 | 1013.0 |
| 20260906005017 | 91 | 117 | 8.0 | 12.0 | 0.00 | 0.00 | 0.00 | 56 | 1013.1 |
| 20260906004021 | 93 | 90 | 9.0 | 13.0 | 0.00 | 0.00 | 0.00 | 54 | 1012.9 |
| 20260906003024 | 95 | 97 | 7.0 | 11.0 | 0.00 | 0.00 | 0.00 | 45 | 1012.8 |
| 20260906002047 | 96 | 92 | 4.0 | 6.0 | 0.00 | 0.00 | 0.00 | 44 | 1012.7 |
| 20260906001024 | 97 | 90 | 4.0 | 8.0 | 0.00 | 0.00 | 0.00 | 43 | 1012.6 |
| 20260906000016 | 97 | 101 | 4.0 | 6.0 | 0.00 | 0.00 | 0.00 | 43 | 1012.5 |
| 20260905235019 | 98 | 100 | 5.0 | 8.0 | 0.00 | 0.00 | 0.00 | 40 | 1012.4 |
| 20260905234043 | 98 | 146 | 3.0 | 6.0 | 0.00 | 0.00 | 0.00 | 41 | 1012.4 |
| 20260905233026 | 100 | 75 | 6.0 | 8.0 | 0.00 | 0.00 | 0.00 | 39 | 1012.4 |
| 20260905232109 | 100 | 108 | 5.0 | 10.0 | 0.00 | 0.00 | 0.00 | 38 | 1012.4 |
| 20260905231032 | 101 | 114 | 4.0 | 7.0 | 0.00 | 0.00 | 0.00 | 38 | 1012.4 |
| 20260905230017 | 101 | 108 | 2.0 | 4.0 | 0.00 | 0.00 | 0.00 | 38 | 1012.2 |
| 20260905225016 | 102 | 111 | 3.0 | 6.0 | 0.00 | 0.00 | 0.00 | 37 | 1012.2 |
| 20260905224018 | 101 | 118 | 2.0 | 4.0 | 0.00 | 0.00 | 0.00 | 38 | 1012.4 |
| 20260905223021 | 101 | 101 | 3.0 | 7.0 | 0.00 | 0.00 | 0.00 | 38 | 1012.4 |
| 20260905222030 | 102 | 68 | 3.0 | 6.0 | 0.00 | 0.00 | 0.00 | 37 | 1012.4 |
| 20260905221028 | 100 | 172 | 4.0 | 5.0 | 0.00 | 0.00 | 0.00 | 39 | 1012.5 |
| 20260905220031 | 101 | 174 | 4.0 | 5.0 | 0.00 | 0.00 | 0.00 | 39 | 1012.5 |
| 20260905215017 | 101 | 67 | 2.0 | 3.0 | 0.00 | 0.00 | 0.00 | 38 | 1012.7 |
| 20260905214020 | 98 | 213 | 1.0 | 2.0 | 0.00 | 0.00 | 0.00 | 41 | 1012.8 |
| 20260905213028 | 99 | 107 | 1.0 | 2.0 | 0.00 | 0.00 | 0.00 | 40 | 1013.0 |
| 20260905212027 | 97 | 0.0 | 0.0 | 0.00 | 0.00 | 0.00 | 42 | 1013.1 | |
| 20260905211030 | 99 | 102 | 3.0 | 5.0 | 0.00 | 0.00 | 0.00 | 40 | 1013.2 |
| 20260905210015 | 100 | 343 | 2.0 | 3.0 | 0.00 | 0.00 | 0.00 | 40 | 1013.3 |
| 20260905205020 | 103 | 94 | 5.0 | 8.0 | 0.00 | 0.00 | 0.00 | 37 | 1013.4 |
| 20260905204022 | 103 | 40 | 5.0 | 8.0 | 0.00 | 0.00 | 0.00 | 38 | 1013.5 |
| 20260905203105 | 100 | 206 | 4.0 | 8.0 | 0.00 | 0.00 | 0.00 | 40 | 1013.6 |
| 20260905202022 | 101 | 174 | 5.0 | 9.0 | 0.00 | 0.00 | 0.00 | 40 | 1013.8 |
| 20260905201059 | 100 | 161 | 4.0 | 6.0 | 0.00 | 0.00 | 0.00 | 41 | 1013.9 |
| 20260905200016 | 100 | 144 | 5.0 | 6.0 | 0.00 | 0.00 | 0.00 | 41 | 1014.1 |
| 20260905195019 | 100 | 122 | 3.0 | 7.0 | 0.00 | 0.00 | 0.00 | 42 | 1014.3 |
| 20260905194023 | 101 | 78 | 3.0 | 6.0 | 0.00 | 0.00 | 0.00 | 40 | 1014.5 |
| 20260905193026 | 101 | 26 | 3.0 | 5.0 | 0.00 | 0.00 | 0.00 | 41 | 1014.7 |
| 20260905192054 | 98 | 144 | 1.0 | 2.0 | 0.00 | 0.00 | 0.00 | 44 | 1014.8 |
| 20260905191033 | 96 | 122 | 3.0 | 3.0 | 0.00 | 0.00 | 0.00 | 45 | 1014.9 |
| 20260905190059 | 97 | 206 | 3.0 | 5.0 | 0.00 | 0.00 | 0.00 | 45 | 1015.1 |
| 20260905185021 | 99 | 195 | 3.0 | 5.0 | 0.00 | 0.00 | 0.00 | 43 | 1015.3 |
| 20260905184024 | 98 | 164 | 4.0 | 6.0 | 0.00 | 0.00 | 0.00 | 44 | 1015.5 |
| 20260905183027 | 99 | 100 | 3.0 | 4.0 | 0.00 | 0.00 | 0.00 | 43 | 1015.6 |
| 20260905182051 | 98 | 210 | 3.0 | 5.0 | 0.00 | 0.00 | 0.00 | 44 | 1015.8 |
| 20260905181017 | 98 | 162 | 6.0 | 9.0 | 0.00 | 0.00 | 0.00 | 45 | 1015.9 |
| 20260905180019 | 97 | 168 | 4.0 | 7.0 | 0.00 | 0.00 | 0.00 | 45 | 1016.1 |
| 20260905175027 | 97 | 278 | 3.0 | 6.0 | 0.00 | 0.00 | 0.00 | 46 | 1016.3 |
| 20260905174026 | 98 | 169 | 4.0 | 5.0 | 0.00 | 0.00 | 0.00 | 45 | 1016.3 |
| 20260905173119 | 96 | 63 | 2.0 | 4.0 | 0.00 | 0.00 | 0.00 | 46 | 1016.5 |
| 20260905172033 | 97 | 178 | 4.0 | 8.0 | 0.00 | 0.00 | 0.00 | 46 | 1016.6 |
| 20260905171042 | 95 | 176 | 5.0 | 8.0 | 0.00 | 0.00 | 0.00 | 47 | 1016.6 |
| 20260905170022 | 96 | 244 | 4.0 | 6.0 | 0.00 | 0.00 | 0.00 | 47 | 1016.6 |
| 20260905165024 | 96 | 130 | 5.0 | 8.0 | 0.00 | 0.00 | 0.00 | 48 | 1016.8 |
| 20260905164022 | 96 | 80 | 5.0 | 9.0 | 0.00 | 0.00 | 0.00 | 47 | 1016.8 |
| 20260905163018 | 94 | 114 | 3.0 | 4.0 | 0.00 | 0.00 | 0.00 | 50 | 1016.8 |
| 20260905162017 | 94 | 146 | 3.0 | 7.0 | 0.00 | 0.00 | 0.00 | 52 | 1016.8 |
| 20260905161044 | 93 | 178 | 3.0 | 4.0 | 0.00 | 0.00 | 0.00 | 53 | 1016.8 |
| 20260905160023 | 93 | 166 | 3.0 | 5.0 | 0.00 | 0.00 | 0.00 | 55 | 1016.8 |
| 20260905155026 | 92 | 136 | 2.0 | 4.0 | 0.00 | 0.00 | 0.00 | 56 | 1016.8 |
| 20260905154035 | 92 | 246 | 1.0 | 6.0 | 0.00 | 0.00 | 0.00 | 56 | 1016.8 |
| 20260905153032 | 91 | 244 | 3.0 | 5.0 | 0.00 | 0.00 | 0.00 | 58 | 1016.7 |
| 20260905152018 | 91 | 282 | 2.0 | 4.0 | 0.00 | 0.00 | 0.00 | 58 | 1016.6 |
| 20260905151021 | 90 | 211 | 3.0 | 6.0 | 0.00 | 0.00 | 0.00 | 59 | 1016.6 |
| 20260905150024 | 89 | 197 | 3.0 | 5.0 | 0.00 | 0.00 | 0.00 | 61 | 1016.6 |
| 20260905145027 | 88 | 193 | 3.0 | 5.0 | 0.00 | 0.00 | 0.00 | 62 | 1016.6 |
| 20260905144030 | 88 | 203 | 3.0 | 5.0 | 0.00 | 0.00 | 0.00 | 64 | 1016.8 |
| 20260905143015 | 87 | 204 | 2.0 | 5.0 | 0.00 | 0.00 | 0.00 | 66 | 1016.7 |
| 20260905142039 | 86 | 223 | 2.0 | 4.0 | 0.00 | 0.00 | 0.00 | 69 | 1016.6 |
| 20260905141022 | 85 | 199 | 3.0 | 3.0 | 0.00 | 0.00 | 0.00 | 72 | 1016.6 |
| 20260905140045 | 84 | 198 | 3.0 | 5.0 | 0.00 | 0.00 | 0.00 | 74 | 1016.6 |
| 20260905135029 | 83 | 173 | 3.0 | 4.0 | 0.00 | 0.00 | 0.00 | 75 | 1016.5 |